Volver al catálogo

COSMOS 862 DEB

LostHEO
NORAD 9895·DEBRIS·🇷🇺 Russia

Lanzado Oct 22, 1976 desde Plesetsk Cosmodrome

Loading…

Próximos Pases (próximas 24 horas)

TLE

ObsoletoSource: Space-Track

Época: Apr 10, 1979, 07:23 UTC

1 09895U 76105  M 79100.30766735  .00000869 +00000-0 +00000-0 0  9997
2 09895 065.8544 001.2865 7047681 309.9181 003.8665 02.00350332018174

Sigue COSMOS 862 DEB en tiempo real con AllMySat

Download on the App Store